Weather History for KBCE - August, 2013

Change the Weather History Date:

Friday, August 2, 2013

  Actual Average Record
Temperature  
Mean Temperature 63 °F -  
Max Temperature 81 °F 80 °F 88 °F (1993)
Min Temperature 46 °F 46 °F 32 °F (1975)
Degree Days  
Heating Degree Days 2    
Growing Degree Days 13 (Base 50)    
Moisture  
Dew Point 44 °F    
Average Humidity 54    
Maximum Humidity 89    
Minimum Humidity 23    
Precipitation  
Precipitation 0.00 in - - ()
Sea Level Pressure  
Sea Level Pressure 29.94 in    
Wind  
Wind Speed 7 mph (SW)    
Max Wind Speed 16 mph    
Max Gust Speed 43 mph    
Visibility 10 miles    
Events      
Averages and records for this station are not official NWS values.
T = Trace of Precipitation, MM = Missing Value Source: NWS Daily Summary

Daily Weather History Graph

Daily Weather History Graph

Search for Another Location

Airport or City:

Trip Planner

Search our weather history database for the weather conditions in past years. The results will help you decide how hot, cold, wet, or windy it might be!

Date:

Astronomy

Aug. 02, 2013 Rise Set
Actual Time 6:33 AM MDT 8:35 PM MDT
Civil Twilight 6:04 AM MDT 9:04 PM MDT
Nautical Twilight 5:29 AM MDT 9:39 PM MDT
Astronomical Twilight 4:50 AM MDT 10:17 PM MDT
Moon 2:58 AM MDT (8/2) 5:35 PM MDT (8/2)
Length of Visible Light 15h 00m
Length of Day
14h 02m
Waning Crescent, 15% of the Moon is Illuminated
Aug 2
Waning Crescent
Aug 6
New
Aug 14
First Quarter
Aug 20
Full
Aug 28
Last Quarter

Hourly Weather History & Observations

Time (MDT) Temp. Windchill Dew Point Humidity Pressure Visibility Wind Dir Wind Speed Gust Speed Precip Events Conditions
12:53 AM 60.1 °F - 51.1 °F 72% 29.91 in 10.0 mi Calm Calm - N/A   Scattered Clouds
1:53 AM 54.0 °F - 48.9 °F 83% 29.89 in 10.0 mi West 4.6 mph - N/A   Partly Cloudy
2:53 AM 52.0 °F - 48.0 °F 86% 29.91 in 10.0 mi West 6.9 mph - N/A   Clear
3:53 AM 52.0 °F - 48.0 °F 86% 29.91 in 10.0 mi West 5.8 mph - N/A   Mostly Cloudy
4:53 AM 50.0 °F - 46.0 °F 86% 29.91 in 10.0 mi WSW 6.9 mph - N/A   Clear
5:53 AM 48.0 °F - 43.0 °F 83% 29.92 in 10.0 mi WSW 6.9 mph - N/A   Clear
6:53 AM 46.0 °F 44.8 °F 43.0 °F 89% 29.97 in 10.0 mi WSW 3.5 mph - N/A   Mostly Cloudy
7:53 AM 50.0 °F - 45.0 °F 83% 29.98 in 10.0 mi WSW 4.6 mph - N/A   Partly Cloudy
8:53 AM 62.1 °F - 48.9 °F 62% 29.95 in 10.0 mi Calm Calm - N/A   Clear
9:53 AM 66.9 °F - 53.1 °F 61% 29.95 in 10.0 mi South 9.2 mph - N/A   Clear
10:44 AM 71.6 °F - 46.4 °F 41% 30.33 in 10.0 mi SW 16.1 mph 25.3 mph N/A   Partly Cloudy
10:53 AM 71.1 °F - 46.9 °F 42% 29.94 in 10.0 mi SSW 15.0 mph 23.0 mph N/A   Scattered Clouds
11:53 AM 69.1 °F - 46.0 °F 44% 29.95 in 10.0 mi SSW 11.5 mph - N/A   Mostly Cloudy
12:53 PM 73.0 °F - 46.0 °F 38% 29.93 in 10.0 mi SW 5.8 mph - N/A   Scattered Clouds
1:53 PM 79.0 °F - 43.0 °F 28% 29.91 in 10.0 mi South 15.0 mph 21.9 mph N/A   Mostly Cloudy
2:53 PM 79.0 °F - 44.1 °F 29% 29.91 in 10.0 mi SSW 16.1 mph 42.6 mph N/A   Mostly Cloudy
3:53 PM 80.1 °F - 41.0 °F 25% 29.88 in 10.0 mi South 12.7 mph 25.3 mph N/A   Partly Cloudy
4:53 PM 78.1 °F - 41.0 °F 27% 29.89 in 10.0 mi SSW 16.1 mph 21.9 mph N/A   Partly Cloudy
5:53 PM 77.0 °F - 37.9 °F 24% 29.89 in 10.0 mi SW 13.8 mph - N/A   Clear
6:53 PM 75.0 °F - 35.1 °F 23% 29.92 in 10.0 mi SSW 12.7 mph - N/A   Clear
7:53 PM 72.0 °F - 36.0 °F 27% 29.93 in 10.0 mi SSW 8.1 mph - N/A   Clear
8:53 PM 62.1 °F - 37.9 °F 41% 29.94 in 10.0 mi SW 4.6 mph - N/A   Clear
9:53 PM 63.0 °F - 46.9 °F 56% 29.94 in 10.0 mi SE 8.1 mph - N/A   Clear
10:53 PM 55.0 °F - 41.0 °F 59% 29.96 in 10.0 mi Calm Calm - N/A   Clear
11:53 PM 53.1 °F - 42.1 °F 66% 29.98 in 10.0 mi SW 3.5 mph - N/A   Clear